Location: Township of Marena
(38.1747°N, 99.6798°W)
Time: 03:26:16
(UTC+00:00)

CZ-4 R/B - Pass Details

Date: 26 October 2020
Orbit: 579 x 590 km, 97.8° (Epoch: 24 November)

Event Time Altitude Azimuth Distance (km) Brightness Sun altitude
Rises 00:49:51 0° 160° (SSE) 2,804 7.8 -13.0°
Reaches altitude 10° 00:52:00 10° 157° (SSE) 1,908 6.9 -13.4°
Maximum altitude 00:56:06 66° 75° (ENE) 647 4.4 -14.2°
Drops below altitude 10° 01:00:15 10° 354° (N) 1,925 7.1 -15.0°
Sets 01:02:25 0° 352° (N) 2,830 8.0 -15.5°
